This is the latest recevied weather packets stored in our database for station/object KI2K. If no packets are shown the sender has not sent any weather packets the latest 10 day(s).
| Time | Temp. | Humidity | Pressure | Rain* | Wind** | Luminosity | Snow |
|---|---|---|---|---|---|---|---|
| 1778091969 | 13.33° C | 65% | 1013.5 hPa | 0 mm | - | 212 W/m² | - |
| 1778091665 | 13.33° C | 63% | 1013.3 hPa | 0 mm | - | 198 W/m² | - |
| 1778091363 | 12.78° C | 64% | 1013.5 hPa | 0 mm | - | 207 W/m² | - |
| 1778091060 | 12.78° C | 67% | 1013.5 hPa | 0 mm | - | 191 W/m² | - |
| 1778090756 | 13.33° C | 67% | 1013.5 hPa | 0 mm | - | 200 W/m² | - |
| 1778090453 | 13.33° C | 69% | 1013.5 hPa | 0 mm | - | 190 W/m² | - |
| 1778090149 | 13.33° C | 67% | 1013.6 hPa | 0 mm | - | 173 W/m² | - |
| 1778089846 | 13.33° C | 67% | 1013.5 hPa | 0 mm | - | 188 W/m² | - |
| 1778089545 | 13.89° C | 67% | 1013.4 hPa | 0 mm | - | 251 W/m² | - |
| 1778089240 | 12.78° C | 64% | 1013.4 hPa | 0 mm | - | 258 W/m² | - |
| 1778088938 | 12.78° C | 65% | 1013.5 hPa | 0 mm | - | 210 W/m² | - |
| 1778088634 | 12.78° C | 64% | 1013.5 hPa | 0 mm | - | 164 W/m² | - |
| 1778088332 | 12.78° C | 63% | 1013.8 hPa | 0 mm | - | 160 W/m² | - |
| 1778088028 | 12.78° C | 64% | 1013.6 hPa | 0 mm | - | 170 W/m² | - |
| 1778087726 | 12.78° C | 65% | 1013.6 hPa | 0 mm | - | 196 W/m² | - |
| 1778087423 | 12.78° C | 64% | 1013.5 hPa | 0 mm | - | 170 W/m² | - |
| 1778087120 | 12.78° C | 67% | 1013.4 hPa | 0 mm | - | 148 W/m² | - |
| 1778086818 | 13.33° C | 66% | 1013.5 hPa | 0 mm | - | 162 W/m² | - |
| 1778086516 | 13.33° C | 64% | 1013.5 hPa | 0 mm | - | 162 W/m² | - |
| 1778086206 | 12.78° C | 65% | 1013.6 hPa | 0 mm | - | 200 W/m² | - |
| 1778085903 | 13.33° C | 62% | 1013.7 hPa | 0 mm | - | 192 W/m² | - |
| 1778085601 | 12.78° C | 63% | 1013.6 hPa | 0 mm | - | 217 W/m² | - |
| 1778085296 | 12.78° C | 65% | 1013.7 hPa | 0 mm | - | 205 W/m² | - |
| 1778084991 | 13.33° C | 62% | 1013.7 hPa | 0 mm | - | 163 W/m² | - |
| 1778084688 | 13.33° C | 58% | 1013.4 hPa | 0 mm | - | 173 W/m² | - |
* Rain latest hour (hover to see other rain measurements)
** Current wind speed in m/s (hover to see current wind gust speed)